| time (UTC) | temp C | wind direction | speed KPH | gust KPH | rain 1hr cm | rain 24hr cm | rain mn cm | humidity % | barometer mb |
| 20260509090024 | 13 | 94 | 4.8 | 14.5 | 0.00 | 0.23 | 0.00 | 81 | 997.0 |
| 20260509084506 | 13 | 262 | 4.8 | 16.1 | 0.00 | 0.94 | 0.00 | 84 | 996.7 |
| 20260509083012 | 13 | 210 | 4.8 | 25.7 | 0.00 | 1.45 | 0.00 | 84 | 996.5 |
| 20260509081518 | 13 | 87 | 6.4 | 30.6 | 0.00 | 1.73 | 0.00 | 83 | 996.8 |
| 20260509080021 | 13 | 326 | 3.2 | 19.3 | 0.00 | 1.88 | 0.00 | 84 | 996.9 |
| 20260509074526 | 13 | 112 | 3.2 | 19.3 | 0.00 | 1.88 | 0.00 | 84 | 997.0 |
| 20260509073010 | 13 | 82 | 3.2 | 12.9 | 0.00 | 1.96 | 0.00 | 84 | 996.8 |
| 20260509071515 | 13 | 345 | 4.8 | 17.7 | 0.00 | 1.96 | 0.00 | 84 | 996.8 |
| 20260509070022 | 13 | 220 | 3.2 | 16.1 | 0.00 | 2.06 | 0.00 | 84 | 996.9 |
| 20260509064523 | 13 | 44 | 3.2 | 12.9 | 0.00 | 2.29 | 0.00 | 86 | 996.9 |
| 20260509063034 | 13 | 158 | 3.2 | 20.9 | 0.00 | 2.46 | 0.00 | 87 | 996.9 |
| 20260509061514 | 13 | 91 | 4.8 | 16.1 | 0.00 | 2.51 | 0.00 | 88 | 996.7 |
| 20260509060016 | 13 | 214 | 3.2 | 12.9 | 0.00 | 2.54 | 0.00 | 89 | 996.6 |
| 20260509054523 | 13 | 230 | 1.6 | 9.7 | 0.00 | 2.62 | 0.00 | 88 | 996.7 |
| 20260509053024 | 13 | 114 | 1.6 | 6.4 | 0.00 | 2.67 | 0.00 | 88 | 997.0 |
| 20260509051528 | 13 | 233 | 1.6 | 14.5 | 0.00 | 2.67 | 0.00 | 88 | 996.9 |
| 20260509050022 | 13 | 79 | 0.0 | 12.9 | 0.00 | 2.67 | 0.00 | 88 | 996.7 |
| 20260509044520 | 14 | 250 | 1.6 | 11.3 | 0.00 | 2.67 | 0.00 | 87 | 996.8 |
| 20260509043025 | 14 | 236 | 3.2 | 17.7 | 0.00 | 2.67 | 0.00 | 87 | 996.8 |
| 20260509041524 | 14 | 93 | 3.2 | 17.7 | 0.00 | 2.67 | 0.00 | 86 | 997.0 |
| 20260509040035 | 15 | 36 | 3.2 | 12.9 | 0.00 | 2.67 | 0.00 | 86 | 997.0 |
| 20260509034512 | 15 | 47 | 3.2 | 11.3 | 0.00 | 2.67 | 0.00 | 87 | 996.8 |
| 20260509033018 | 15 | 316 | 4.8 | 14.5 | 0.00 | 2.69 | 0.00 | 87 | 996.7 |
| 20260509031529 | 15 | 1 | 1.6 | 11.3 | 0.00 | 2.69 | 0.00 | 87 | 996.5 |
| 20260509030026 | 15 | 124 | 1.6 | 8.0 | 0.00 | 2.69 | 0.00 | 87 | 996.6 |
| 20260509024528 | 15 | 240 | 1.6 | 24.1 | 0.00 | 2.69 | 0.00 | 87 | 996.7 |
| 20260509023016 | 15 | 233 | 1.6 | 17.7 | 0.00 | 2.69 | 0.00 | 88 | 996.8 |
| 20260509021522 | 15 | 352 | 4.8 | 12.9 | 0.00 | 2.69 | 0.00 | 88 | 996.6 |
| 20260509020023 | 15 | 77 | 3.2 | 16.1 | 0.00 | 2.69 | 0.00 | 87 | 996.8 |
| 20260509014537 | 15 | 288 | 1.6 | 20.9 | 0.00 | 2.69 | 0.00 | 87 | 996.9 |
| 20260509013028 | 15 | 6 | 1.6 | 20.9 | 0.00 | 2.69 | 0.00 | 87 | 996.9 |
| 20260509011520 | 15 | 18 | 3.2 | 24.1 | 0.00 | 2.69 | 0.00 | 87 | 996.5 |
| 20260509010027 | 15 | 253 | 6.4 | 22.5 | 0.00 | 2.69 | 0.00 | 87 | 996.7 |
| 20260509004527 | 15 | 236 | 6.4 | 27.4 | 0.00 | 2.69 | 0.00 | 88 | 996.8 |
| 20260509003028 | 15 | 158 | 4.8 | 19.3 | 0.00 | 2.69 | 0.00 | 89 | 996.4 |
| 20260509001531 | 15 | 243 | 4.8 | 20.9 | 0.00 | 2.69 | 0.00 | 89 | 996.9 |
| 20260509000022 | 15 | 32 | 3.2 | 17.7 | 0.00 | 2.69 | 0.00 | 90 | 997.4 |
| 20260508234504 | 15 | 266 | 6.4 | 20.9 | 0.00 | 2.69 | 0.00 | 91 | 997.3 |
| 20260508233008 | 15 | 233 | 4.8 | 24.1 | 0.00 | 2.69 | 0.00 | 91 | 997.1 |
| 20260508231512 | 15 | 331 | 4.8 | 27.4 | 0.00 | 2.69 | 0.00 | 91 | 997.2 |
| 20260508230018 | 15 | 88 | 4.8 | 17.7 | 0.00 | 2.69 | 0.00 | 90 | 997.4 |
| 20260508224524 | 15 | 250 | 8.0 | 20.9 | 0.00 | 2.69 | 0.00 | 90 | 997.2 |
| 20260508223009 | 15 | 219 | 4.8 | 17.7 | 0.00 | 2.69 | 0.00 | 90 | 997.6 |
| 20260508221510 | 15 | 203 | 6.4 | 27.4 | 0.00 | 2.69 | 0.00 | 89 | 997.5 |
| 20260508220050 | 15 | 30 | 8.0 | 22.5 | 0.00 | 2.69 | 0.00 | 89 | 997.5 |
| 20260508214521 | 15 | 111 | 4.8 | 24.1 | 0.00 | 2.69 | 0.00 | 89 | 997.7 |
| 20260508213026 | 15 | 51 | 4.8 | 30.6 | 0.00 | 2.69 | 0.00 | 88 | 998.1 |
| 20260508211505 | 15 | 265 | 6.4 | 20.9 | 0.00 | 2.69 | 0.00 | 89 | 998.1 |
| 20260508210015 | 15 | 226 | 3.2 | 24.1 | 0.00 | 2.69 | 0.00 | 89 | 997.9 |
| 20260508204521 | 15 | 305 | 6.4 | 24.1 | 0.00 | 2.72 | 0.00 | 89 | 997.6 |
| 20260508203024 | 15 | 189 | 8.0 | 19.3 | 0.00 | 2.72 | 0.00 | 90 | 997.3 |
| 20260508201532 | 15 | 73 | 8.0 | 20.9 | 0.00 | 2.77 | 0.00 | 87 | 997.9 |
| 20260508200009 | 15 | 30 | 6.4 | 27.4 | 0.00 | 2.79 | 0.00 | 86 | 997.2 |
| 20260508194515 | 15 | 238 | 8.0 | 30.6 | 0.00 | 2.87 | 0.00 | 86 | 996.2 |
| 20260508193026 | 15 | 309 | 6.4 | 24.1 | 0.00 | 2.95 | 0.00 | 90 | 995.5 |
| 20260508191525 | 15 | 342 | 4.8 | 43.5 | 0.00 | 2.95 | 0.00 | 88 | 995.8 |
| 20260508190033 | 15 | 227 | 6.4 | 29.0 | 0.00 | 2.95 | 0.00 | 88 | 996.2 |
| 20260508184520 | 15 | 158 | 9.7 | 37.0 | 0.00 | 2.95 | 0.00 | 88 | 996.2 |
| 20260508183018 | 15 | 212 | 11.3 | 30.6 | 0.00 | 2.95 | 0.00 | 89 | 996.7 |
| 20260508181532 | 15 | 58 | 8.0 | 22.5 | 0.00 | 2.95 | 0.00 | 89 | 996.6 |
| 20260508180026 | 15 | 310 | 11.3 | 27.4 | 0.00 | 2.95 | 0.00 | 89 | 996.5 |
| 20260508174534 | 15 | 226 | 8.0 | 27.4 | 0.00 | 2.95 | 0.00 | 91 | 996.2 |
| 20260508173017 | 15 | 298 | 9.7 | 20.9 | 0.00 | 2.95 | 0.00 | 92 | 996.6 |
| 20260508171521 | 15 | 274 | 6.4 | 30.6 | 0.00 | 2.95 | 0.00 | 92 | 996.6 |
| 20260508170022 | 15 | 327 | 4.8 | 27.4 | 0.00 | 2.95 | 0.00 | 92 | 997.2 |
| 20260508164526 | 15 | 301 | 8.0 | 27.4 | 0.00 | 2.95 | 0.00 | 92 | 997.0 |
| 20260508163035 | 15 | 245 | 6.4 | 32.2 | 0.00 | 2.95 | 0.00 | 93 | 997.1 |
| 20260508161526 | 15 | 220 | 9.7 | 25.7 | 0.00 | 2.95 | 0.00 | 94 | 997.0 |
| 20260508160020 | 15 | 58 | 6.4 | 27.4 | 0.00 | 2.95 | 0.00 | 94 | 997.4 |
| 20260508154524 | 15 | 268 | 9.7 | 33.8 | 0.00 | 2.95 | 0.00 | 94 | 997.8 |
| 20260508153028 | 15 | 301 | 8.0 | 33.8 | 0.00 | 2.95 | 0.00 | 94 | 998.0 |
| 20260508151516 | 15 | 143 | 8.0 | 22.5 | 0.00 | 2.95 | 0.00 | 94 | 997.9 |
| 20260508150025 | 15 | 319 | 6.4 | 19.3 | 0.00 | 2.95 | 0.00 | 94 | 997.9 |
| 20260508144526 | 15 | 64 | 6.4 | 22.5 | 0.00 | 2.95 | 0.00 | 94 | 997.9 |
| 20260508143027 | 15 | 230 | 8.0 | 25.7 | 0.00 | 2.95 | 0.00 | 95 | 997.9 |
| 20260508141526 | 15 | 82 | 4.8 | 25.7 | 0.00 | 2.95 | 0.00 | 95 | 998.3 |
| 20260508140016 | 15 | 231 | 4.8 | 22.5 | 0.00 | 2.95 | 0.00 | 94 | 998.3 |
| 20260508134509 | 15 | 258 | 8.0 | 22.5 | 0.00 | 2.95 | 0.00 | 94 | 998.5 |
| 20260508133008 | 15 | 147 | 6.4 | 24.1 | 0.00 | 2.95 | 0.00 | 94 | 998.8 |
| 20260508131510 | 15 | 187 | 9.7 | 32.2 | 0.00 | 2.95 | 0.00 | 93 | 998.4 |
| 20260508130008 | 15 | 96 | 8.0 | 33.8 | 0.00 | 2.95 | 0.00 | 93 | 998.5 |
| 20260508124511 | 15 | 211 | 9.7 | 35.4 | 0.00 | 2.95 | 0.00 | 93 | 998.8 |
| 20260508123008 | 15 | 246 | 11.3 | 33.8 | 0.00 | 2.95 | 0.00 | 94 | 998.3 |
| 20260508121509 | 15 | 211 | 9.7 | 29.0 | 0.00 | 2.95 | 0.00 | 96 | 998.4 |
| 20260508120011 | 14 | 237 | 8.0 | 19.3 | 0.00 | 2.95 | 0.00 | 97 | 998.7 |
| 20260508114510 | 14 | 293 | 8.0 | 24.1 | 0.00 | 2.95 | 2.95 | 97 | 998.5 |
| 20260508113014 | 14 | 75 | 4.8 | 24.1 | 0.00 | 2.95 | 2.95 | 98 | 998.6 |
| 20260508111507 | 14 | 281 | 6.4 | 12.9 | 0.00 | 2.95 | 2.95 | 98 | 998.8 |
| 20260508110015 | 14 | 214 | 3.2 | 22.5 | 0.00 | 2.95 | 2.95 | 98 | 998.7 |
| 20260508104512 | 14 | 316 | 6.4 | 17.7 | 0.00 | 2.95 | 2.95 | 98 | 999.1 |
| 20260508103012 | 14 | 195 | 6.4 | 32.2 | 0.00 | 2.95 | 2.95 | 98 | 999.2 |
| 20260508101510 | 13 | 214 | 4.8 | 30.6 | 0.05 | 2.95 | 2.95 | 98 | 999.9 |
| 20260508100005 | 13 | 298 | 4.8 | 17.7 | 0.23 | 2.95 | 2.95 | 98 | 1000.1 |
| 20260508094510 | 12 | 252 | 3.2 | 12.9 | 0.94 | 2.95 | 2.95 | 97 | 999.8 |
| 20260508093012 | 12 | 266 | 9.7 | 22.5 | 1.45 | 2.95 | 2.95 | 97 | 1000.0 |
| 20260508091514 | 12 | 274 | 3.2 | 24.1 | 1.68 | 2.90 | 2.90 | 96 | 1000.5 |